カタログに戻る

THORAD AGENA D DEB

運用中PO
NORAD 4911·DEBRIS·🇺🇸 United States

打ち上げ Apr 8, 1970 から Vandenberg Space Force Base

Loading…

次のパス (今後24時間)

TLE

最新Source: Space-Track

元期: Sep 14, 2026, 03:47 UTC

1 04911U 70025FH  26257.15786426  .00001747  00000-0  65227-3 0  9994
2 04911  99.9562 151.1536 0060920  64.6557 296.0914 14.32440771884339

AllMySatでTHORAD AGENA D DEBをリアルタイム追跡

Download on the App Store